• In Deutschland
  • Länderverzeichnis
  • Für 7 Tage
  • Wassertemperatur
  • Satellitenkarten
  • Wetterkarte
  • Widgets
  • user-avatar
    Anmelden

    Stündliche Wetter Yopal

    Heute, 20 November, Montag

    Zeit Temperatur Niederschläge Wind Luftdruck Luftfeuchtigkeit
    00:00 +25°C° 0 mm 1 m/S 728 mmHg 92%
    01:00 +25°C° 0 mm 1 m/S 728 mmHg 91%
    02:00 +25°C° 0,1 mm 1 m/S 728 mmHg 91%
    03:00 +25°C° 0,1 mm 1 m/S 728 mmHg 90%
    04:00 +24°C° 0,1 mm 1 m/S 728 mmHg 90%
    05:00 +25°C° 0,2 mm 1 m/S 728 mmHg 87%
    06:00 +26°C° 0,2 mm 1 m/S 729 mmHg 85%
    07:00 +26°C° 0,2 mm 1 m/S 729 mmHg 82%
    08:00 +28°C° 0 mm 1 m/S 729 mmHg 75%
    09:00 +30°C° 0 mm 2 m/S 730 mmHg 67%
    10:00 +32°C° 0 mm 2 m/S 730 mmHg 59%
    11:00 +33°C° 0 mm 3 m/S 729 mmHg 59%
    12:00 +34°C° 0 mm 3 m/S 728 mmHg 59%
    13:00 +34°C° 0 mm 3 m/S 728 mmHg 59%
    14:00 +32°C° 0,5 mm 2 m/S 727 mmHg 66%
    15:00 +31°C° 0,5 mm 2 m/S 727 mmHg 73%
    16:00 +30°C° 0,5 mm 1 m/S 727 mmHg 80%
    17:00 +29°C° 0,9 mm 1 m/S 727 mmHg 84%
    18:00 +28°C° 0,9 mm 1 m/S 727 mmHg 87%
    19:00 +24°C° 0,9 mm 0 m/S 728 mmHg 91%
    20:00 +26°C° 0,2 mm 1 m/S 728 mmHg 92%
    21:00 +26°C° 0,2 mm 1 m/S 729 mmHg 92%
    22:00 +25°C° 0,2 mm 1 m/S 729 mmHg 92%
    23:00 +25°C° 0 mm 1 m/S 729 mmHg 92%

    Morgen, 21 November, Dienstag

    Zeit Temperatur Niederschläge Wind Luftdruck Luftfeuchtigkeit
    00:00 +25°C° 0 mm 1 m/S 728 mmHg 91%
    01:00 +25°C° 0 mm 1 m/S 728 mmHg 90%
    02:00 +24°C° 0 mm 1 m/S 728 mmHg 90%
    03:00 +24°C° 0 mm 1 m/S 728 mmHg 89%
    04:00 +24°C° 0 mm 1 m/S 728 mmHg 88%
    05:00 +25°C° 0 mm 1 m/S 728 mmHg 86%
    06:00 +25°C° 0 mm 1 m/S 729 mmHg 84%
    07:00 +26°C° 0 mm 1 m/S 729 mmHg 81%
    08:00 +28°C° 0 mm 1 m/S 729 mmHg 73%
    09:00 +30°C° 0 mm 1 m/S 730 mmHg 64%
    10:00 +32°C° 0 mm 1 m/S 730 mmHg 56%
    11:00 +32°C° 0 mm 2 m/S 729 mmHg 55%
    12:00 +32°C° 0 mm 2 m/S 728 mmHg 54%
    13:00 +34°C° 0 mm 2 m/S 728 mmHg 54%
    14:00 +32°C° 0 mm 2 m/S 727 mmHg 58%
    15:00 +31°C° 0 mm 1 m/S 727 mmHg 63%
    16:00 +31°C° 0 mm 1 m/S 726 mmHg 68%
    17:00 +29°C° 0 mm 1 m/S 727 mmHg 72%
    18:00 +28°C° 0 mm 1 m/S 727 mmHg 77%
    19:00 +27°C° 0 mm 1 m/S 728 mmHg 81%
    20:00 +27°C° 0 mm 1 m/S 728 mmHg 80%
    21:00 +26°C° 0 mm 1 m/S 729 mmHg 80%
    22:00 +26°C° 0 mm 1 m/S 729 mmHg 80%
    23:00 +26°C° 0 mm 1 m/S 729 mmHg 80%

    übermorgen, 22 November, Mittwoch

    Zeit Temperatur Niederschläge Wind Luftdruck Luftfeuchtigkeit
    00:00 +25°C° 0 mm 1 m/S 729 mmHg 80%
    01:00 +25°C° 0 mm 1 m/S 729 mmHg 80%
    02:00 +25°C° 0 mm 1 m/S 729 mmHg 79%
    03:00 +25°C° 0 mm 1 m/S 728 mmHg 79%
    04:00 +25°C° 0 mm 1 m/S 728 mmHg 79%
    05:00 +25°C° 0 mm 1 m/S 729 mmHg 77%
    06:00 +26°C° 0 mm 1 m/S 729 mmHg 75%
    07:00 +27°C° 0 mm 1 m/S 729 mmHg 74%
    08:00 +29°C° 0 mm 1 m/S 730 mmHg 68%
    09:00 +31°C° 0 mm 2 m/S 730 mmHg 62%
    10:00 +32°C° 0 mm 2 m/S 730 mmHg 56%
    11:00 +34°C° 0,1 mm 2 m/S 729 mmHg 55%
    12:00 +34°C° 0,1 mm 2 m/S 729 mmHg 54%
    13:00 +35°C° 0,1 mm 3 m/S 728 mmHg 53%
    14:00 +34°C° 0,1 mm 2 m/S 727 mmHg 57%
    15:00 +32°C° 0,1 mm 2 m/S 727 mmHg 62%
    16:00 +31°C° 0,1 mm 2 m/S 726 mmHg 67%
    17:00 +30°C° 0 mm 1 m/S 727 mmHg 73%
    18:00 +29°C° 0 mm 1 m/S 727 mmHg 79%
    19:00 +27°C° 0 mm 1 m/S 728 mmHg 84%
    20:00 +27°C° 0 mm 1 m/S 728 mmHg 84%
    21:00 +27°C° 0 mm 1 m/S 729 mmHg 84%
    22:00 +26°C° 0 mm 1 m/S 729 mmHg 84%
    23:00 +26°C° 0 mm 1 m/S 729 mmHg 83%

    23 November, Donnerstag

    Zeit Temperatur Niederschläge Wind Luftdruck Luftfeuchtigkeit
    00:00 +26°C° 0 mm 1 m/S 728 mmHg 82%
    01:00 +26°C° 0 mm 1 m/S 728 mmHg 82%
    02:00 +25°C° 0 mm 1 m/S 728 mmHg 81%
    03:00 +25°C° 0 mm 1 m/S 728 mmHg 80%
    04:00 +25°C° 0 mm 1 m/S 728 mmHg 80%
    05:00 +26°C° 0 mm 1 m/S 728 mmHg 78%
    06:00 +26°C° 0 mm 1 m/S 729 mmHg 77%
    07:00 +27°C° 0 mm 1 m/S 729 mmHg 75%
    08:00 +28°C° 0 mm 1 m/S 729 mmHg 69%
    09:00 +30°C° 0 mm 1 m/S 730 mmHg 63%
    10:00 +32°C° 0 mm 2 m/S 730 mmHg 57%
    11:00 +32°C° 0,1 mm 2 m/S 729 mmHg 56%
    12:00 +34°C° 0,1 mm 2 m/S 728 mmHg 54%
    13:00 +35°C° 0,1 mm 2 m/S 728 mmHg 52%
    14:00 +34°C° 0,1 mm 2 m/S 727 mmHg 57%
    15:00 +32°C° 0,1 mm 2 m/S 727 mmHg 63%
    16:00 +31°C° 0,1 mm 2 m/S 726 mmHg 68%
    17:00 +30°C° 0,2 mm 1 m/S 727 mmHg 75%
    18:00 +28°C° 0,2 mm 1 m/S 728 mmHg 83%
    19:00 +25°C° 0,2 mm 0 m/S 728 mmHg 91%
    20:00 +25°C° 0,2 mm 0 m/S 728 mmHg 91%
    21:00 +26°C° 0,2 mm 1 m/S 729 mmHg 91%
    22:00 +26°C° 0,2 mm 1 m/S 729 mmHg 92%
    23:00 +26°C° 0,3 mm 1 m/S 729 mmHg 91%

    24 November, Freitag

    Zeit Temperatur Niederschläge Wind Luftdruck Luftfeuchtigkeit
    00:00 +25°C° 0,3 mm 1 m/S 728 mmHg 91%
    01:00 +25°C° 0,3 mm 1 m/S 728 mmHg 90%
    02:00 +25°C° 0 mm 1 m/S 728 mmHg 89%
    03:00 +25°C° 0 mm 1 m/S 728 mmHg 88%
    04:00 +25°C° 0 mm 1 m/S 728 mmHg 87%
    05:00 +26°C° 0 mm 1 m/S 729 mmHg 84%
    06:00 +26°C° 0 mm 1 m/S 729 mmHg 82%
    07:00 +25°C° 0 mm 0 m/S 730 mmHg 80%
    08:00 +28°C° 0,1 mm 1 m/S 730 mmHg 75%
    09:00 +29°C° 0,1 mm 2 m/S 730 mmHg 71%
    10:00 +30°C° 0,1 mm 2 m/S 730 mmHg 66%
    11:00 +31°C° 0,1 mm 2 m/S 730 mmHg 63%
    12:00 +32°C° 0,1 mm 2 m/S 729 mmHg 61%
    13:00 +32°C° 0,1 mm 2 m/S 728 mmHg 58%
    14:00 +32°C° 0,4 mm 2 m/S 728 mmHg 62%
    15:00 +31°C° 0,4 mm 2 m/S 727 mmHg 65%
    16:00 +30°C° 0,4 mm 1 m/S 727 mmHg 69%
    17:00 +29°C° 0,4 mm 1 m/S 728 mmHg 74%
    18:00 +28°C° 0,4 mm 1 m/S 728 mmHg 79%
    19:00 +27°C° 0,4 mm 1 m/S 729 mmHg 84%
    20:00 +26°C° 0,2 mm 1 m/S 729 mmHg 85%
    21:00 +26°C° 0,2 mm 1 m/S 730 mmHg 86%
    22:00 +26°C° 0,2 mm 1 m/S 730 mmHg 86%
    23:00 +26°C° 0,1 mm 1 m/S 730 mmHg 87%

    25 November, Samstag

    Zeit Temperatur Niederschläge Wind Luftdruck Luftfeuchtigkeit
    00:00 +25°C° 0,1 mm 1 m/S 729 mmHg 87%
    01:00 +25°C° 0,1 mm 1 m/S 729 mmHg 87%
    02:00 +25°C° 0,1 mm 1 m/S 729 mmHg 87%
    03:00 +25°C° 0,1 mm 1 m/S 729 mmHg 86%
    04:00 +25°C° 0,1 mm 1 m/S 729 mmHg 86%
    05:00 +25°C° 0,1 mm 1 m/S 729 mmHg 83%
    06:00 +26°C° 0,1 mm 1 m/S 730 mmHg 81%
    07:00 +26°C° 0,1 mm 1 m/S 730 mmHg 78%
    08:00 +28°C° 0,1 mm 1 m/S 731 mmHg 72%
    09:00 +29°C° 0,1 mm 1 m/S 731 mmHg 66%
    10:00 +31°C° 0,1 mm 2 m/S 731 mmHg 59%
    11:00 +31°C° 0,1 mm 2 m/S 730 mmHg 58%
    12:00 +32°C° 0,1 mm 2 m/S 729 mmHg 57%
    13:00 +32°C° 0,1 mm 2 m/S 729 mmHg 56%
    14:00 +32°C° 0,1 mm 2 m/S 728 mmHg 58%
    15:00 +31°C° 0,1 mm 2 m/S 728 mmHg 61%
    16:00 +31°C° 0,1 mm 2 m/S 728 mmHg 64%
    17:00 +30°C° 0,1 mm 1 m/S 728 mmHg 70%
    18:00 +28°C° 0,1 mm 1 m/S 729 mmHg 76%
    19:00 +27°C° 0,1 mm 1 m/S 729 mmHg 82%
    20:00 +26°C° 0,1 mm 1 m/S 729 mmHg 82%
    21:00 +26°C° 0,1 mm 1 m/S 730 mmHg 82%
    22:00 +26°C° 0,1 mm 1 m/S 730 mmHg 81%
    23:00 +25°C° 0 mm 1 m/S 730 mmHg 80%
    Mehr zeigen